Location: Great Malvern
(52.1167°N, 2.3167°W)
Time: 18:58:05
(UTC+00:00)

OBJECT-B - Pass Details

Date: 18 September 2020
Orbit: 421 x 433 km, 97.0° (Epoch: 09 October)

Event Time Altitude Azimuth Distance (km) Brightness Sun altitude
Exits shadow 19:01:25 10° 101° (ESE) 1,488 2.8 -7.7°
Maximum altitude 19:03:23 16° 63° (ENE) 1,200 2.6 -8.0°
Drops below altitude 10° 19:05:28 10° 23° (NNE) 1,525 3.5 -8.3°
Sets 19:08:01 0° 1° (N) 2,399 4.8 -8.7°
